Year,Month,Day,Hour,Minute,Value (Times are PST for temperature in C)
2009,09,23,00,00,12.90
2009,09,23,00,01,12.90
2009,09,23,00,02,12.90
2009,09,23,00,03,12.90
2009,09,23,00,04,12.90
2009,09,23,00,05,12.90
2009,09,23,00,06,12.90
2009,09,23,00,07,12.80
2009,09,23,00,08,12.80
2009,09,23,00,09,12.80
2009,09,23,00,10,12.80
2009,09,23,00,11,12.80
2009,09,23,00,12,12.80
2009,09,23,00,13,12.80
2009,09,23,00,14,12.80
2009,09,23,00,15,12.80
2009,09,23,00,16,12.80
2009,09,23,00,17,12.70
2009,09,23,00,18,12.70
2009,09,23,00,19,12.70
2009,09,23,00,20,12.70
2009,09,23,00,21,12.70
2009,09,23,00,22,12.70
2009,09,23,00,23,12.70
2009,09,23,00,24,12.60
2009,09,23,00,25,12.60
2009,09,23,00,26,12.60
2009,09,23,00,27,12.60
2009,09,23,00,28,12.60
2009,09,23,00,29,12.60
2009,09,23,00,30,12.50
2009,09,23,00,31,12.50
2009,09,23,00,32,12.50
2009,09,23,00,33,12.50
2009,09,23,00,34,12.50
2009,09,23,00,35,12.40
2009,09,23,00,36,12.40
2009,09,23,00,37,12.40
2009,09,23,00,38,12.40
2009,09,23,00,39,12.40
2009,09,23,00,40,12.40
2009,09,23,00,41,12.40
2009,09,23,00,42,12.40
2009,09,23,00,43,12.30
2009,09,23,00,44,12.30
2009,09,23,00,45,12.30
2009,09,23,00,46,12.30
2009,09,23,00,47,12.30
2009,09,23,00,48,12.30
2009,09,23,00,49,12.30
2009,09,23,00,50,12.30
2009,09,23,00,51,12.30
2009,09,23,00,52,12.30
2009,09,23,00,53,12.30
2009,09,23,00,54,12.30
2009,09,23,00,55,12.30
2009,09,23,00,56,12.20
2009,09,23,00,57,12.20
2009,09,23,00,58,12.20
2009,09,23,00,59,12.20
2009,09,23,01,00,12.20
2009,09,23,01,01,12.20
2009,09,23,01,02,12.20
2009,09,23,01,03,12.20
2009,09,23,01,04,12.10
2009,09,23,01,05,12.10
2009,09,23,01,06,12.10
2009,09,23,01,07,12.10
2009,09,23,01,08,12.10
2009,09,23,01,09,12.10
2009,09,23,01,10,12.10
2009,09,23,01,11,12.10
2009,09,23,01,12,12.10
2009,09,23,01,13,12.10
2009,09,23,01,14,12.10
2009,09,23,01,15,12.10
2009,09,23,01,16,12.10
2009,09,23,01,17,12.10
2009,09,23,01,18,12.10
2009,09,23,01,19,12.10
2009,09,23,01,20,12.10
2009,09,23,01,21,12.10
2009,09,23,01,22,12.10
2009,09,23,01,23,12.10
2009,09,23,01,24,12.10
2009,09,23,01,25,12.10
2009,09,23,01,26,12.10
2009,09,23,01,27,12.10
2009,09,23,01,28,12.10
2009,09,23,01,29,12.10
2009,09,23,01,30,12.00
2009,09,23,01,31,12.00
2009,09,23,01,32,12.00
2009,09,23,01,33,12.00
2009,09,23,01,34,12.00
2009,09,23,01,35,12.00
2009,09,23,01,36,12.00
2009,09,23,01,37,11.90
2009,09,23,01,38,11.90
2009,09,23,01,39,11.90
2009,09,23,01,40,11.90
2009,09,23,01,41,11.90
2009,09,23,01,42,11.90
2009,09,23,01,43,11.90
2009,09,23,01,44,11.90
2009,09,23,01,45,11.90
2009,09,23,01,46,11.90
2009,09,23,01,47,11.90
2009,09,23,01,48,11.90
2009,09,23,01,49,11.90
2009,09,23,01,50,11.90
2009,09,23,01,51,11.90
2009,09,23,01,52,11.90
2009,09,23,01,53,11.90
2009,09,23,01,54,11.90
2009,09,23,01,55,11.80
2009,09,23,01,56,11.80
2009,09,23,01,57,11.80
2009,09,23,01,58,11.90
2009,09,23,01,59,11.90
2009,09,23,02,00,11.90
2009,09,23,02,01,11.90
2009,09,23,02,02,11.90
2009,09,23,02,03,11.90
2009,09,23,02,04,11.90
2009,09,23,02,05,11.90
2009,09,23,02,06,11.90
2009,09,23,02,07,11.90
2009,09,23,02,08,11.90
2009,09,23,02,09,11.80
2009,09,23,02,10,11.80
2009,09,23,02,11,11.80
2009,09,23,02,12,11.80
2009,09,23,02,13,11.80
2009,09,23,02,14,11.80
2009,09,23,02,15,11.80
2009,09,23,02,16,11.80
2009,09,23,02,17,11.80
2009,09,23,02,18,11.70
2009,09,23,02,19,11.70
2009,09,23,02,20,11.70
2009,09,23,02,21,11.70
2009,09,23,02,22,11.70
2009,09,23,02,23,11.70
2009,09,23,02,24,11.70
2009,09,23,02,25,11.70
2009,09,23,02,26,11.70
2009,09,23,02,27,11.70
2009,09,23,02,28,11.70
2009,09,23,02,29,11.70
2009,09,23,02,30,11.60
2009,09,23,02,31,11.60
2009,09,23,02,32,11.60
2009,09,23,02,33,11.60
2009,09,23,02,34,11.60
2009,09,23,02,35,11.60
2009,09,23,02,36,11.60
2009,09,23,02,37,11.60
2009,09,23,02,38,11.60
2009,09,23,02,39,11.60
2009,09,23,02,40,11.50
2009,09,23,02,41,11.50
2009,09,23,02,42,11.50
2009,09,23,02,43,11.50
2009,09,23,02,44,11.50
2009,09,23,02,45,11.50
2009,09,23,02,46,11.50
2009,09,23,02,47,11.50
2009,09,23,02,48,11.50
2009,09,23,02,49,11.50
2009,09,23,02,50,11.50
2009,09,23,02,51,11.50
2009,09,23,02,52,11.50
2009,09,23,02,53,11.50
2009,09,23,02,54,11.50
2009,09,23,02,55,11.50
2009,09,23,02,56,11.50
2009,09,23,02,57,11.50
2009,09,23,02,58,11.50
2009,09,23,02,59,11.50
2009,09,23,03,00,11.50
2009,09,23,03,01,11.50
2009,09,23,03,02,11.50
2009,09,23,03,03,11.50
2009,09,23,03,04,11.50
2009,09,23,03,05,11.50
2009,09,23,03,06,11.50
2009,09,23,03,07,11.50
2009,09,23,03,08,11.50
2009,09,23,03,09,11.50
2009,09,23,03,10,11.50
2009,09,23,03,11,11.50
2009,09,23,03,12,11.40
2009,09,23,03,13,11.40
2009,09,23,03,14,11.40
2009,09,23,03,15,11.40
2009,09,23,03,16,11.40
2009,09,23,03,17,11.40
2009,09,23,03,18,11.40
2009,09,23,03,19,11.40
2009,09,23,03,20,11.40
2009,09,23,03,21,11.40
2009,09,23,03,22,11.40
2009,09,23,03,23,11.40
2009,09,23,03,24,11.40
2009,09,23,03,25,11.40
2009,09,23,03,26,11.40
2009,09,23,03,27,11.30
2009,09,23,03,28,11.30
2009,09,23,03,29,11.30
2009,09,23,03,30,11.30
2009,09,23,03,31,11.30
2009,09,23,03,32,11.30
2009,09,23,03,33,11.30
2009,09,23,03,34,11.30
2009,09,23,03,35,11.30
2009,09,23,03,36,11.30
2009,09,23,03,37,11.30
2009,09,23,03,38,11.30
2009,09,23,03,39,11.30
2009,09,23,03,40,11.30
2009,09,23,03,41,11.20
2009,09,23,03,42,11.20
2009,09,23,03,43,11.20
2009,09,23,03,44,11.20
2009,09,23,03,45,11.20
2009,09,23,03,46,11.20
2009,09,23,03,47,11.20
2009,09,23,03,48,11.20
2009,09,23,03,49,11.20
2009,09,23,03,50,11.20
2009,09,23,03,51,11.20
2009,09,23,03,52,11.20
2009,09,23,03,53,11.20
2009,09,23,03,54,11.20
2009,09,23,03,55,11.20
2009,09,23,03,56,11.20
2009,09,23,03,57,11.20
2009,09,23,03,58,11.20
2009,09,23,03,59,11.20
2009,09,23,04,00,11.20
2009,09,23,04,01,11.20
2009,09,23,04,02,11.20
2009,09,23,04,03,11.10
2009,09,23,04,04,11.10
2009,09,23,04,05,11.10
2009,09,23,04,06,11.10
2009,09,23,04,07,11.10
2009,09,23,04,08,11.10
2009,09,23,04,09,11.10
2009,09,23,04,10,11.10
2009,09,23,04,11,11.10
2009,09,23,04,12,11.10
2009,09,23,04,13,11.10
2009,09,23,04,14,11.10
2009,09,23,04,15,11.10
2009,09,23,04,16,11.10
2009,09,23,04,17,11.00
2009,09,23,04,18,11.10
2009,09,23,04,19,11.10
2009,09,23,04,20,11.00
2009,09,23,04,21,11.00
2009,09,23,04,22,11.00
2009,09,23,04,23,11.00
2009,09,23,04,24,11.00
2009,09,23,04,25,11.00
2009,09,23,04,26,11.00
2009,09,23,04,27,11.00
2009,09,23,04,28,10.90
2009,09,23,04,29,10.90
2009,09,23,04,30,10.90
2009,09,23,04,31,10.90
2009,09,23,04,32,10.90
2009,09,23,04,33,10.90
2009,09,23,04,34,10.90
2009,09,23,04,35,10.90
2009,09,23,04,36,10.90
2009,09,23,04,37,10.90
2009,09,23,04,38,10.90
2009,09,23,04,39,10.90
2009,09,23,04,40,10.90
2009,09,23,04,41,10.90
2009,09,23,04,42,10.90
2009,09,23,04,43,10.90
2009,09,23,04,44,10.90
2009,09,23,04,45,10.90
2009,09,23,04,46,10.90
2009,09,23,04,47,10.90
2009,09,23,04,48,10.90
2009,09,23,04,49,10.90
2009,09,23,04,50,10.90
2009,09,23,04,51,10.90
2009,09,23,04,52,10.90
2009,09,23,04,53,10.90
2009,09,23,04,54,10.90
2009,09,23,04,55,10.90
2009,09,23,04,56,10.80
2009,09,23,04,57,10.80
2009,09,23,04,58,10.80
2009,09,23,04,59,10.80
2009,09,23,05,00,10.80
2009,09,23,05,01,10.80
2009,09,23,05,02,10.80
2009,09,23,05,03,10.80
2009,09,23,05,04,10.80
2009,09,23,05,05,10.80
2009,09,23,05,06,10.80
2009,09,23,05,07,10.80
2009,09,23,05,08,10.80
2009,09,23,05,09,10.80
2009,09,23,05,10,10.80
2009,09,23,05,11,10.80
2009,09,23,05,12,10.80
2009,09,23,05,13,10.80
2009,09,23,05,14,10.80
2009,09,23,05,15,10.80
2009,09,23,05,16,10.80
2009,09,23,05,17,10.80
2009,09,23,05,18,10.80
2009,09,23,05,19,10.80
2009,09,23,05,20,10.80
2009,09,23,05,21,10.80
2009,09,23,05,22,10.80
2009,09,23,05,23,10.90
2009,09,23,05,24,10.90
2009,09,23,05,25,11.00
2009,09,23,05,26,11.00
2009,09,23,05,27,11.00
2009,09,23,05,28,11.00
2009,09,23,05,29,10.90
2009,09,23,05,30,10.90
2009,09,23,05,31,10.90
2009,09,23,05,32,10.90
2009,09,23,05,33,10.90
2009,09,23,05,34,10.80
2009,09,23,05,35,10.80
2009,09,23,05,36,10.80
2009,09,23,05,37,10.80
2009,09,23,05,38,10.80
2009,09,23,05,39,10.80
2009,09,23,05,40,10.80
2009,09,23,05,41,10.80
2009,09,23,05,42,10.80
2009,09,23,05,43,10.80
2009,09,23,05,44,10.80
2009,09,23,05,45,10.80
2009,09,23,05,46,10.80
2009,09,23,05,47,10.80
2009,09,23,05,48,10.90
2009,09,23,05,49,10.90
2009,09,23,05,50,10.80
2009,09,23,05,51,10.80
2009,09,23,05,52,10.80
2009,09,23,05,53,10.80
2009,09,23,05,54,10.80
2009,09,23,05,55,10.80
2009,09,23,05,56,10.80
2009,09,23,05,57,10.80
2009,09,23,05,58,10.80
2009,09,23,05,59,10.80
2009,09,23,06,00,10.80
2009,09,23,06,01,10.80
2009,09,23,06,02,10.80
2009,09,23,06,03,10.80
2009,09,23,06,04,10.80
2009,09,23,06,05,10.80
2009,09,23,06,06,10.80
2009,09,23,06,07,10.80
2009,09,23,06,08,10.80
2009,09,23,06,09,10.80
2009,09,23,06,10,10.80
2009,09,23,06,11,10.80
2009,09,23,06,12,10.80
2009,09,23,06,13,10.80
2009,09,23,06,14,10.80
2009,09,23,06,15,10.80
2009,09,23,06,16,10.80
2009,09,23,06,17,10.80
2009,09,23,06,18,10.80
2009,09,23,06,19,10.80
2009,09,23,06,20,10.80
2009,09,23,06,21,10.80
2009,09,23,06,22,10.70
2009,09,23,06,23,10.70
2009,09,23,06,24,10.70
2009,09,23,06,25,10.70
2009,09,23,06,26,10.70
2009,09,23,06,27,10.70
2009,09,23,06,28,10.80
2009,09,23,06,29,10.80
2009,09,23,06,30,10.90
2009,09,23,06,31,10.90
2009,09,23,06,32,10.90
2009,09,23,06,33,10.90
2009,09,23,06,34,10.90
2009,09,23,06,35,10.90
2009,09,23,06,36,10.90
2009,09,23,06,37,10.90
2009,09,23,06,38,10.90
2009,09,23,06,39,10.80
2009,09,23,06,40,10.80
2009,09,23,06,41,10.80
2009,09,23,06,42,10.80
2009,09,23,06,43,10.80
2009,09,23,06,44,10.70
2009,09,23,06,45,10.70
2009,09,23,06,46,10.70
2009,09,23,06,47,10.60
2009,09,23,06,48,10.60
2009,09,23,06,49,10.60
2009,09,23,06,50,10.60
2009,09,23,06,51,10.60
2009,09,23,06,52,10.50
2009,09,23,06,53,10.50
2009,09,23,06,54,10.50
2009,09,23,06,55,10.50
2009,09,23,06,56,10.50
2009,09,23,06,57,10.50
2009,09,23,06,58,10.50
2009,09,23,06,59,10.50
2009,09,23,07,00,10.40
2009,09,23,07,01,10.50
2009,09,23,07,02,10.50
2009,09,23,07,03,10.60
2009,09,23,07,04,10.50
2009,09,23,07,05,10.50
2009,09,23,07,06,10.50
2009,09,23,07,07,10.50
2009,09,23,07,08,10.40
2009,09,23,07,09,10.40
2009,09,23,07,10,10.40
2009,09,23,07,11,10.40
2009,09,23,07,12,10.40
2009,09,23,07,13,10.40
2009,09,23,07,14,10.40
2009,09,23,07,15,10.40
2009,09,23,07,16,10.40
2009,09,23,07,17,10.30
2009,09,23,07,18,10.30
2009,09,23,07,19,10.30
2009,09,23,07,20,10.30
2009,09,23,07,21,10.30
2009,09,23,07,22,10.30
2009,09,23,07,23,10.30
2009,09,23,07,24,10.30
2009,09,23,07,25,10.20
2009,09,23,07,26,10.20
2009,09,23,07,27,10.20
2009,09,23,07,28,10.20
2009,09,23,07,29,10.20
2009,09,23,07,30,10.20
2009,09,23,07,31,10.20
2009,09,23,07,32,10.20
2009,09,23,07,33,10.30
2009,09,23,07,34,10.30
2009,09,23,07,35,10.30
2009,09,23,07,36,10.30
2009,09,23,07,37,10.30
2009,09,23,07,38,10.30
2009,09,23,07,39,10.30
2009,09,23,07,40,10.30
2009,09,23,07,41,10.30
2009,09,23,07,42,10.30
2009,09,23,07,43,10.30
2009,09,23,07,44,10.30
2009,09,23,07,45,10.40
2009,09,23,07,46,10.40
2009,09,23,07,47,10.40
2009,09,23,07,48,10.40
2009,09,23,07,49,10.40
2009,09,23,07,50,10.40
2009,09,23,07,51,10.50
2009,09,23,07,52,10.50
2009,09,23,07,53,10.50
2009,09,23,07,54,10.50
2009,09,23,07,55,10.60
2009,09,23,07,56,10.60
2009,09,23,07,57,10.60
2009,09,23,07,58,10.60
2009,09,23,07,59,10.60
2009,09,23,08,00,10.70
2009,09,23,08,01,10.70
2009,09,23,08,02,10.70
2009,09,23,08,03,10.70
2009,09,23,08,04,10.80
2009,09,23,08,05,10.80
2009,09,23,08,06,10.80
2009,09,23,08,07,10.80
2009,09,23,08,08,10.90
2009,09,23,08,09,10.90
2009,09,23,08,10,11.00
2009,09,23,08,11,11.10
2009,09,23,08,12,11.10
2009,09,23,08,13,11.20
2009,09,23,08,14,11.30
2009,09,23,08,15,11.30
2009,09,23,08,16,11.40
2009,09,23,08,17,11.40
2009,09,23,08,18,11.50
2009,09,23,08,19,11.60
2009,09,23,08,20,11.70
2009,09,23,08,21,11.70
2009,09,23,08,22,11.80
2009,09,23,08,23,11.90
2009,09,23,08,24,12.00
2009,09,23,08,25,12.10
2009,09,23,08,26,12.20
2009,09,23,08,27,12.20
2009,09,23,08,28,12.30
2009,09,23,08,29,12.40
2009,09,23,08,30,12.50
2009,09,23,08,31,12.60
2009,09,23,08,32,12.70
2009,09,23,08,33,12.80
2009,09,23,08,34,12.90
2009,09,23,08,35,12.90
2009,09,23,08,36,13.00
2009,09,23,08,37,13.10
2009,09,23,08,38,13.20
2009,09,23,08,39,13.30
2009,09,23,08,40,13.30
2009,09,23,08,41,13.40
2009,09,23,08,42,13.50
2009,09,23,08,43,13.60
2009,09,23,08,44,13.70
2009,09,23,08,45,13.80
2009,09,23,08,46,13.90
2009,09,23,08,47,14.00
2009,09,23,08,48,14.10
2009,09,23,08,49,14.20
2009,09,23,08,50,14.30
2009,09,23,08,51,14.40
2009,09,23,08,52,14.50
2009,09,23,08,53,14.60
2009,09,23,08,54,14.70
2009,09,23,08,55,14.80
2009,09,23,08,56,14.80
2009,09,23,08,57,14.90
2009,09,23,08,58,15.00
2009,09,23,08,59,15.10
2009,09,23,09,00,15.20
2009,09,23,09,01,15.30
2009,09,23,09,02,15.40
2009,09,23,09,03,15.50
2009,09,23,09,04,15.60
2009,09,23,09,05,15.70
2009,09,23,09,06,15.80
2009,09,23,09,07,16.00
2009,09,23,09,08,16.10
2009,09,23,09,09,16.20
2009,09,23,09,10,16.30
2009,09,23,09,11,16.30
2009,09,23,09,12,16.40
2009,09,23,09,13,16.50
2009,09,23,09,14,16.50
2009,09,23,09,15,16.60
2009,09,23,09,16,16.70
2009,09,23,09,17,16.80
2009,09,23,09,18,16.90
2009,09,23,09,19,17.00
2009,09,23,09,20,17.10
2009,09,23,09,21,17.20
2009,09,23,09,22,17.30
2009,09,23,09,23,17.40
2009,09,23,09,24,17.50
2009,09,23,09,25,17.60
2009,09,23,09,26,17.70
2009,09,23,09,27,17.80
2009,09,23,09,28,17.80
2009,09,23,09,29,17.80
2009,09,23,09,30,17.80
2009,09,23,09,31,17.80
2009,09,23,09,32,17.80
2009,09,23,09,33,17.80
2009,09,23,09,34,17.80
2009,09,23,09,35,17.80
2009,09,23,09,36,17.80
2009,09,23,09,37,17.70
2009,09,23,09,38,17.70
2009,09,23,09,39,17.60
2009,09,23,09,40,17.50
2009,09,23,09,41,17.50
2009,09,23,09,42,17.40
2009,09,23,09,43,17.50
2009,09,23,09,44,17.50
2009,09,23,09,45,17.50
2009,09,23,09,46,17.50
2009,09,23,09,47,17.60
2009,09,23,09,48,17.60
2009,09,23,09,49,17.70
2009,09,23,09,50,17.70
2009,09,23,09,51,17.70
2009,09,23,09,52,17.70
2009,09,23,09,53,17.80
2009,09,23,09,54,17.80
2009,09,23,09,55,17.70
2009,09,23,09,56,17.70
2009,09,23,09,57,17.70
2009,09,23,09,58,17.70
2009,09,23,09,59,17.70
2009,09,23,10,00,17.70
2009,09,23,10,01,17.60
2009,09,23,10,02,17.60
2009,09,23,10,03,17.60
2009,09,23,10,04,17.60
2009,09,23,10,05,17.60
2009,09,23,10,06,17.60
2009,09,23,10,07,17.60
2009,09,23,10,08,17.60
2009,09,23,10,09,17.70
2009,09,23,10,10,17.70
2009,09,23,10,11,17.80
2009,09,23,10,12,17.90
2009,09,23,10,13,18.00
2009,09,23,10,14,18.10
2009,09,23,10,15,18.20
2009,09,23,10,16,18.30
2009,09,23,10,17,18.40
2009,09,23,10,18,18.60
2009,09,23,10,19,18.70
2009,09,23,10,20,18.80
2009,09,23,10,21,18.90
2009,09,23,10,22,19.00
2009,09,23,10,23,19.20
2009,09,23,10,24,19.30
2009,09,23,10,25,19.40
2009,09,23,10,26,19.50
2009,09,23,10,27,19.70
2009,09,23,10,28,19.80
2009,09,23,10,29,19.90
2009,09,23,10,30,20.00
2009,09,23,10,31,20.20
2009,09,23,10,32,20.30
2009,09,23,10,33,20.40
2009,09,23,10,34,20.60
2009,09,23,10,35,20.70
2009,09,23,10,36,20.80
2009,09,23,10,37,20.90
2009,09,23,10,38,21.00
2009,09,23,10,39,21.20
2009,09,23,10,40,21.30
2009,09,23,10,41,21.40
2009,09,23,10,42,21.50
2009,09,23,10,43,21.60
2009,09,23,10,44,21.70
2009,09,23,10,45,21.80
2009,09,23,10,46,21.80
2009,09,23,10,47,21.90
2009,09,23,10,48,22.00
2009,09,23,10,49,22.10
2009,09,23,10,50,22.10
2009,09,23,10,51,22.20
2009,09,23,10,52,22.10
2009,09,23,10,53,22.00
2009,09,23,10,54,21.90
2009,09,23,10,55,21.90
2009,09,23,10,56,21.80
2009,09,23,10,57,21.70
2009,09,23,10,58,21.60
2009,09,23,10,59,21.60
2009,09,23,11,00,21.50
2009,09,23,11,01,21.50
2009,09,23,11,02,21.50
2009,09,23,11,03,21.50
2009,09,23,11,04,21.50
2009,09,23,11,05,21.50
2009,09,23,11,06,21.50
2009,09,23,11,07,21.50
2009,09,23,11,08,21.60
2009,09,23,11,09,21.60
2009,09,23,11,10,21.60
2009,09,23,11,11,21.60
2009,09,23,11,12,21.60
2009,09,23,11,13,21.60
2009,09,23,11,14,21.60
2009,09,23,11,15,21.60
2009,09,23,11,16,21.60
2009,09,23,11,17,21.60
2009,09,23,11,18,21.60
2009,09,23,11,19,21.60
2009,09,23,11,20,21.60
2009,09,23,11,21,21.60
2009,09,23,11,22,21.60
2009,09,23,11,23,21.60
2009,09,23,11,24,21.60
2009,09,23,11,25,21.70
2009,09,23,11,26,21.70
2009,09,23,11,27,21.70
2009,09,23,11,28,21.70
2009,09,23,11,29,21.80
2009,09,23,11,30,21.80
2009,09,23,11,31,21.80
2009,09,23,11,32,21.90
2009,09,23,11,33,21.90
2009,09,23,11,34,21.90
2009,09,23,11,35,21.90
2009,09,23,11,36,21.90
2009,09,23,11,37,21.90
2009,09,23,11,38,21.90
2009,09,23,11,39,22.00
2009,09,23,11,40,22.00
2009,09,23,11,41,22.10
2009,09,23,11,42,22.20
2009,09,23,11,43,22.20
2009,09,23,11,44,22.30
2009,09,23,11,45,22.30
2009,09,23,11,46,22.30
2009,09,23,11,47,22.30
2009,09,23,11,48,22.30
2009,09,23,11,49,22.30
2009,09,23,11,50,22.30
2009,09,23,11,51,22.30
2009,09,23,11,52,22.30
2009,09,23,11,53,22.30
2009,09,23,11,54,22.30
2009,09,23,11,55,22.30
2009,09,23,11,56,22.30
2009,09,23,11,57,22.20
2009,09,23,11,58,22.20
2009,09,23,11,59,22.20
2009,09,23,12,00,22.30
2009,09,23,12,01,22.30
2009,09,23,12,02,22.30
2009,09,23,12,03,22.30
2009,09,23,12,04,22.30
2009,09,23,12,05,22.30
2009,09,23,12,06,22.20
2009,09,23,12,07,22.20
2009,09,23,12,08,22.20
2009,09,23,12,09,22.10
2009,09,23,12,10,22.10
2009,09,23,12,11,22.10
2009,09,23,12,12,22.00
2009,09,23,12,13,21.90
2009,09,23,12,14,21.80
2009,09,23,12,15,21.70
2009,09,23,12,16,21.70
2009,09,23,12,17,21.70
2009,09,23,12,18,21.60
2009,09,23,12,19,21.60
2009,09,23,12,20,21.50
2009,09,23,12,21,21.50
2009,09,23,12,22,21.50
2009,09,23,12,23,21.60
2009,09,23,12,24,21.60
2009,09,23,12,25,21.60
2009,09,23,12,26,21.60
2009,09,23,12,27,21.70
2009,09,23,12,28,21.70
2009,09,23,12,29,21.70
2009,09,23,12,30,21.80
2009,09,23,12,31,21.80
2009,09,23,12,32,21.90
2009,09,23,12,33,21.90
2009,09,23,12,34,22.00
2009,09,23,12,35,22.00
2009,09,23,12,36,22.10
2009,09,23,12,37,22.10
2009,09,23,12,38,22.10
2009,09,23,12,39,22.10
2009,09,23,12,40,22.10
2009,09,23,12,41,22.00
2009,09,23,12,42,21.90
2009,09,23,12,43,21.80
2009,09,23,12,44,21.80
2009,09,23,12,45,21.70
2009,09,23,12,46,21.70
2009,09,23,12,47,21.70
2009,09,23,12,48,21.60
2009,09,23,12,49,21.70
2009,09,23,12,50,21.70
2009,09,23,12,51,21.70
2009,09,23,12,52,21.60
2009,09,23,12,53,21.60
2009,09,23,12,54,21.50
2009,09,23,12,55,21.50
2009,09,23,12,56,21.40
2009,09,23,12,57,21.30
2009,09,23,12,58,21.20
2009,09,23,12,59,21.20
2009,09,23,13,00,21.20
2009,09,23,13,01,21.30
2009,09,23,13,02,21.30
2009,09,23,13,03,21.40
2009,09,23,13,04,21.40
2009,09,23,13,05,21.50
2009,09,23,13,06,21.60
2009,09,23,13,07,21.60
2009,09,23,13,08,21.60
2009,09,23,13,09,21.70
2009,09,23,13,10,21.70
2009,09,23,13,11,21.70
2009,09,23,13,12,21.70
2009,09,23,13,13,21.80
2009,09,23,13,14,21.80
2009,09,23,13,15,21.80
2009,09,23,13,16,21.80
2009,09,23,13,17,21.80
2009,09,23,13,18,21.80
2009,09,23,13,19,21.80
2009,09,23,13,20,21.80
2009,09,23,13,21,21.70
2009,09,23,13,22,21.60
2009,09,23,13,23,21.50
2009,09,23,13,24,21.40
2009,09,23,13,25,21.30
2009,09,23,13,26,21.30
2009,09,23,13,27,21.30
2009,09,23,13,28,21.30
2009,09,23,13,29,21.30
2009,09,23,13,30,21.30
2009,09,23,13,31,21.30
2009,09,23,13,32,21.20
2009,09,23,13,33,21.10
2009,09,23,13,34,21.00
2009,09,23,13,35,20.80
2009,09,23,13,36,20.80
2009,09,23,13,37,20.70
2009,09,23,13,38,20.70
2009,09,23,13,39,20.70
2009,09,23,13,40,20.70
2009,09,23,13,41,20.70
2009,09,23,13,42,20.70
2009,09,23,13,43,20.70
2009,09,23,13,44,20.70
2009,09,23,13,45,20.70
2009,09,23,13,46,20.70
2009,09,23,13,47,20.70
2009,09,23,13,48,20.70
2009,09,23,13,49,20.60
2009,09,23,13,50,20.50
2009,09,23,13,51,20.50
2009,09,23,13,52,20.40
2009,09,23,13,53,20.30
2009,09,23,13,54,20.20
2009,09,23,13,55,20.10
2009,09,23,13,56,20.00
2009,09,23,13,57,20.00
2009,09,23,13,58,20.00
2009,09,23,13,59,20.10
2009,09,23,14,00,20.10
2009,09,23,14,01,20.20
2009,09,23,14,02,20.30
2009,09,23,14,03,20.40
2009,09,23,14,04,20.60
2009,09,23,14,05,20.70
2009,09,23,14,06,20.80
2009,09,23,14,07,20.90
2009,09,23,14,08,21.00
2009,09,23,14,09,21.10
2009,09,23,14,10,21.20
2009,09,23,14,11,21.20
2009,09,23,14,12,21.30
2009,09,23,14,13,21.30
2009,09,23,14,14,21.40
2009,09,23,14,15,21.40
2009,09,23,14,16,21.50
2009,09,23,14,17,21.40
2009,09,23,14,18,21.30
2009,09,23,14,19,21.20
2009,09,23,14,20,21.10
2009,09,23,14,21,21.00
2009,09,23,14,22,20.90
2009,09,23,14,23,20.90
2009,09,23,14,24,20.90
2009,09,23,14,25,20.80
2009,09,23,14,26,20.80
2009,09,23,14,27,20.80
2009,09,23,14,28,20.80
2009,09,23,14,29,20.80
2009,09,23,14,30,20.80
2009,09,23,14,31,20.90
2009,09,23,14,32,20.90
2009,09,23,14,33,20.90
2009,09,23,14,34,20.90
2009,09,23,14,35,20.90
2009,09,23,14,36,20.90
2009,09,23,14,37,20.80
2009,09,23,14,38,20.70
2009,09,23,14,39,20.60
2009,09,23,14,40,20.50
2009,09,23,14,41,20.50
2009,09,23,14,42,20.40
2009,09,23,14,43,20.40
2009,09,23,14,44,20.50
2009,09,23,14,45,20.50
2009,09,23,14,46,20.60
2009,09,23,14,47,20.70
2009,09,23,14,48,20.80
2009,09,23,14,49,20.90
2009,09,23,14,50,21.00
2009,09,23,14,51,21.10
2009,09,23,14,52,21.20
2009,09,23,14,53,21.30
2009,09,23,14,54,21.30
2009,09,23,14,55,21.30
2009,09,23,14,56,21.40
2009,09,23,14,57,21.40
2009,09,23,14,58,21.40
2009,09,23,14,59,21.40
2009,09,23,15,00,21.40
2009,09,23,15,01,21.40
2009,09,23,15,02,21.50
2009,09,23,15,03,21.50
2009,09,23,15,04,21.50
2009,09,23,15,05,21.40
2009,09,23,15,06,21.30
2009,09,23,15,07,21.30
2009,09,23,15,08,21.30
2009,09,23,15,09,21.20
2009,09,23,15,10,21.20
2009,09,23,15,11,21.20
2009,09,23,15,12,21.10
2009,09,23,15,13,21.10
2009,09,23,15,14,21.10
2009,09,23,15,15,21.10
2009,09,23,15,16,21.10
2009,09,23,15,17,21.10
2009,09,23,15,18,21.10
2009,09,23,15,19,21.10
2009,09,23,15,20,21.10
2009,09,23,15,21,21.20
2009,09,23,15,22,21.30
2009,09,23,15,23,21.30
2009,09,23,15,24,21.40
2009,09,23,15,25,21.50
2009,09,23,15,26,21.60
2009,09,23,15,27,21.60
2009,09,23,15,28,21.60
2009,09,23,15,29,21.60
2009,09,23,15,30,21.60
2009,09,23,15,31,21.60
2009,09,23,15,32,21.60
2009,09,23,15,33,21.60
2009,09,23,15,34,21.60
2009,09,23,15,35,21.60
2009,09,23,15,36,21.60
2009,09,23,15,37,21.60
2009,09,23,15,38,21.70
2009,09,23,15,39,21.70
2009,09,23,15,40,21.60
2009,09,23,15,41,21.60
2009,09,23,15,42,21.60
2009,09,23,15,43,21.50
2009,09,23,15,44,21.30
2009,09,23,15,45,21.20
2009,09,23,15,46,21.10
2009,09,23,15,47,21.10
2009,09,23,15,48,21.10
2009,09,23,15,49,21.10
2009,09,23,15,50,21.20
2009,09,23,15,51,21.20
2009,09,23,15,52,21.10
2009,09,23,15,53,21.10
2009,09,23,15,54,21.10
2009,09,23,15,55,21.10
2009,09,23,15,56,21.10
2009,09,23,15,57,21.00
2009,09,23,15,58,21.10
2009,09,23,15,59,21.00
2009,09,23,16,00,21.00
2009,09,23,16,01,21.00
2009,09,23,16,02,21.00
2009,09,23,16,03,21.10
2009,09,23,16,04,21.10
2009,09,23,16,05,21.20
2009,09,23,16,06,21.20
2009,09,23,16,07,21.20
2009,09,23,16,08,21.30
2009,09,23,16,09,21.30
2009,09,23,16,10,21.30
2009,09,23,16,11,21.30
2009,09,23,16,12,21.30
2009,09,23,16,13,21.30
2009,09,23,16,14,21.30
2009,09,23,16,15,21.30
2009,09,23,16,16,21.30
2009,09,23,16,17,21.30
2009,09,23,16,18,21.30
2009,09,23,16,19,21.30
2009,09,23,16,20,21.30
2009,09,23,16,21,21.30
2009,09,23,16,22,21.20
2009,09,23,16,23,21.20
2009,09,23,16,24,21.10
2009,09,23,16,25,21.00
2009,09,23,16,26,21.00
2009,09,23,16,27,20.90
2009,09,23,16,28,20.90
2009,09,23,16,29,20.80
2009,09,23,16,30,20.80
2009,09,23,16,31,20.80
2009,09,23,16,32,20.80
2009,09,23,16,33,20.80
2009,09,23,16,34,20.80
2009,09,23,16,35,20.80
2009,09,23,16,36,20.80
2009,09,23,16,37,20.80
2009,09,23,16,38,20.80
2009,09,23,16,39,20.80
2009,09,23,16,40,20.80
2009,09,23,16,41,20.80
2009,09,23,16,42,20.90
2009,09,23,16,43,20.90
2009,09,23,16,44,20.90
2009,09,23,16,45,20.90
2009,09,23,16,46,20.90
2009,09,23,16,47,20.80
2009,09,23,16,48,20.80
2009,09,23,16,49,20.80
2009,09,23,16,50,20.80
2009,09,23,16,51,20.80
2009,09,23,16,52,20.80
2009,09,23,16,53,20.90
2009,09,23,16,54,20.80
2009,09,23,16,55,20.80
2009,09,23,16,56,20.80
2009,09,23,16,57,20.80
2009,09,23,16,58,20.70
2009,09,23,16,59,20.70
2009,09,23,17,00,20.70
2009,09,23,17,01,20.60
2009,09,23,17,02,20.50
2009,09,23,17,03,20.40
2009,09,23,17,04,20.30
2009,09,23,17,05,20.20
2009,09,23,17,06,20.20
2009,09,23,17,07,20.10
2009,09,23,17,08,20.10
2009,09,23,17,09,20.10
2009,09,23,17,10,20.10
2009,09,23,17,11,20.10
2009,09,23,17,12,20.10
2009,09,23,17,13,20.10
2009,09,23,17,14,20.00
2009,09,23,17,15,20.00
2009,09,23,17,16,19.90
2009,09,23,17,17,19.90
2009,09,23,17,18,19.80
2009,09,23,17,19,19.80